Simultaneous Nadir Overpasses (SNOs) Predictions

Prediction of SNOs between AURA and NPP Satellite Orbit:

Table of predicted SNOs for the next 14.0 days since TLE Epoch: 6/29/2024
Index Date (AURA) Time (AURA) Lat,Lon (AURA) SZA (AURA ) Date (NPP) Time (NPP) Lat,Lon (NPP) SZA (NPP ) Distance(km) Time Diff (sec)
1 06/29/2024 06:57:41 -80.66, 165.04 112.64 06/29/2024 06:57:19 -80.66, 164.93 112.60 1.97 22
2 06/29/2024 07:47:01 80.74, -26.42 67.22 06/29/2024 07:48:00 80.74, -26.40 67.18 0.48 59
3 07/01/2024 19:52:32 -80.62, -29.06 112.38 07/01/2024 19:51:20 -80.62, -29.10 112.33 0.86 72
4 07/01/2024 20:41:51 80.73, 139.77 67.43 07/01/2024 20:42:00 80.73, 139.89 67.40 2.15 9
5 07/04/2024 09:36:41 80.67, -54.57 67.76 07/04/2024 09:36:02 80.67, -54.57 67.79 0.30 39
6 07/04/2024 10:26:03 -80.73, 113.85 112.37 07/04/2024 10:26:44 -80.73, 113.82 112.39 0.58 41
7 07/06/2024 23:20:51 -80.69, -80.33 112.02 07/06/2024 23:20:45 -80.69, -80.35 112.01 0.36 6
8 07/07/2024 00:08:56 81.79, 117.92 63.66 07/07/2024 00:10:09 81.21, 117.76 63.40 63.85 73
9 07/09/2024 12:15:37 -80.66, 85.63 111.65 07/09/2024 12:14:45 -80.67, 85.77 111.64 2.60 52
10 07/09/2024 13:04:57 80.72,-105.97 68.23 07/09/2024 13:05:27 80.73,-105.96 68.21 0.48 30
11 07/12/2024 01:59:40 80.70, 60.10 68.62 07/12/2024 01:59:26 80.70, 60.08 68.63 0.38 14



Historial Predications of SNOs between AURA and NPP
